Year,Month,Day,Hour,Minute,Value (Times are PST for temperature in C)
2009,05,17,00,00,11.30
2009,05,17,00,01,11.30
2009,05,17,00,02,11.30
2009,05,17,00,03,11.30
2009,05,17,00,04,11.30
2009,05,17,00,05,11.30
2009,05,17,00,06,11.30
2009,05,17,00,07,11.30
2009,05,17,00,08,11.30
2009,05,17,00,09,11.30
2009,05,17,00,10,11.30
2009,05,17,00,11,11.30
2009,05,17,00,12,11.30
2009,05,17,00,18,11.20
2009,05,17,00,19,11.20
2009,05,17,00,20,11.20
2009,05,17,00,21,11.20
2009,05,17,00,22,11.20
2009,05,17,00,23,11.20
2009,05,17,00,24,11.20
2009,05,17,00,25,11.20
2009,05,17,00,26,11.20
2009,05,17,00,27,11.10
2009,05,17,00,28,11.10
2009,05,17,00,29,11.10
2009,05,17,00,30,11.10
2009,05,17,00,31,11.10
2009,05,17,00,32,11.10
2009,05,17,00,33,11.10
2009,05,17,00,34,11.10
2009,05,17,00,35,11.10
2009,05,17,00,36,11.10
2009,05,17,00,37,11.10
2009,05,17,00,38,11.10
2009,05,17,00,39,11.10
2009,05,17,00,40,11.10
2009,05,17,00,41,11.10
2009,05,17,00,42,11.10
2009,05,17,00,43,11.10
2009,05,17,00,44,11.10
2009,05,17,00,45,11.10
2009,05,17,00,46,11.10
2009,05,17,00,47,11.10
2009,05,17,00,48,11.10
2009,05,17,00,49,11.10
2009,05,17,00,50,11.10
2009,05,17,00,51,11.00
2009,05,17,00,52,11.00
2009,05,17,00,53,10.90
2009,05,17,00,54,10.90
2009,05,17,00,55,10.90
2009,05,17,00,56,10.90
2009,05,17,00,57,10.90
2009,05,17,00,58,10.90
2009,05,17,00,59,10.80
2009,05,17,01,00,10.80
2009,05,17,01,01,10.80
2009,05,17,01,02,10.80
2009,05,17,01,03,10.80
2009,05,17,01,04,10.80
2009,05,17,01,05,10.80
2009,05,17,01,06,10.80
2009,05,17,01,07,10.80
2009,05,17,01,08,10.70
2009,05,17,01,09,10.70
2009,05,17,01,10,10.70
2009,05,17,01,11,10.70
2009,05,17,01,12,10.60
2009,05,17,01,13,10.50
2009,05,17,01,14,10.50
2009,05,17,01,15,10.40
2009,05,17,01,16,10.40
2009,05,17,01,17,10.30
2009,05,17,01,18,10.30
2009,05,17,01,19,10.30
2009,05,17,01,20,10.20
2009,05,17,01,21,10.20
2009,05,17,01,22,10.20
2009,05,17,01,23,10.20
2009,05,17,01,24,10.10
2009,05,17,01,25,10.10
2009,05,17,01,26,10.10
2009,05,17,01,27,10.10
2009,05,17,01,28,10.10
2009,05,17,01,29,10.10
2009,05,17,01,30,10.00
2009,05,17,01,31,10.00
2009,05,17,01,32,10.00
2009,05,17,01,33,10.00
2009,05,17,01,34,9.90
2009,05,17,01,35,9.90
2009,05,17,01,36,9.90
2009,05,17,01,37,9.90
2009,05,17,01,38,9.90
2009,05,17,01,39,9.80
2009,05,17,01,40,9.80
2009,05,17,01,41,9.80
2009,05,17,01,42,9.80
2009,05,17,01,43,9.90
2009,05,17,01,44,9.80
2009,05,17,01,45,9.80
2009,05,17,01,46,9.80
2009,05,17,01,47,9.80
2009,05,17,01,48,9.80
2009,05,17,01,49,9.80
2009,05,17,01,50,9.80
2009,05,17,01,51,9.80
2009,05,17,01,52,9.80
2009,05,17,01,53,9.80
2009,05,17,01,54,9.80
2009,05,17,01,55,9.70
2009,05,17,01,56,9.70
2009,05,17,01,57,9.70
2009,05,17,01,58,9.70
2009,05,17,01,59,9.70
2009,05,17,02,00,9.70
2009,05,17,02,01,9.70
2009,05,17,02,02,9.70
2009,05,17,02,03,9.70
2009,05,17,02,04,9.70
2009,05,17,02,05,9.60
2009,05,17,02,06,9.60
2009,05,17,02,07,9.60
2009,05,17,02,08,9.60
2009,05,17,02,09,9.60
2009,05,17,02,10,9.60
2009,05,17,02,11,9.50
2009,05,17,02,12,9.50
2009,05,17,02,13,9.50
2009,05,17,02,14,9.50
2009,05,17,02,15,9.40
2009,05,17,02,16,9.40
2009,05,17,02,17,9.40
2009,05,17,02,18,9.50
2009,05,17,02,19,9.50
2009,05,17,02,20,9.50
2009,05,17,02,21,9.60
2009,05,17,02,22,9.60
2009,05,17,02,23,9.60
2009,05,17,02,24,9.70
2009,05,17,02,25,9.70
2009,05,17,02,26,9.70
2009,05,17,02,27,9.70
2009,05,17,02,28,9.70
2009,05,17,02,29,9.80
2009,05,17,02,30,9.80
2009,05,17,02,31,9.80
2009,05,17,02,32,9.80
2009,05,17,02,33,9.80
2009,05,17,02,34,9.80
2009,05,17,02,35,9.90
2009,05,17,02,36,9.90
2009,05,17,02,37,9.90
2009,05,17,02,38,9.90
2009,05,17,02,39,9.90
2009,05,17,02,40,10.00
2009,05,17,02,41,10.00
2009,05,17,02,42,10.00
2009,05,17,02,43,10.10
2009,05,17,02,44,10.10
2009,05,17,02,45,10.10
2009,05,17,02,46,10.10
2009,05,17,02,47,10.10
2009,05,17,02,48,10.10
2009,05,17,02,49,10.10
2009,05,17,02,50,10.10
2009,05,17,02,51,10.20
2009,05,17,02,52,10.20
2009,05,17,02,53,10.20
2009,05,17,02,54,10.20
2009,05,17,02,55,10.30
2009,05,17,02,56,10.30
2009,05,17,02,57,10.30
2009,05,17,02,58,10.40
2009,05,17,02,59,10.40
2009,05,17,03,00,10.40
2009,05,17,03,01,10.50
2009,05,17,03,02,10.50
2009,05,17,03,03,10.50
2009,05,17,03,04,10.60
2009,05,17,03,05,10.60
2009,05,17,03,06,10.60
2009,05,17,03,07,10.60
2009,05,17,03,08,10.70
2009,05,17,03,09,10.80
2009,05,17,03,10,10.80
2009,05,17,03,11,10.80
2009,05,17,03,12,10.80
2009,05,17,03,13,10.80
2009,05,17,03,14,10.80
2009,05,17,03,15,10.80
2009,05,17,03,16,10.90
2009,05,17,03,17,11.00
2009,05,17,03,18,11.00
2009,05,17,03,19,11.00
2009,05,17,03,20,11.00
2009,05,17,03,21,11.00
2009,05,17,03,22,11.10
2009,05,17,03,23,11.10
2009,05,17,03,24,11.10
2009,05,17,03,25,11.10
2009,05,17,03,26,11.10
2009,05,17,03,27,11.10
2009,05,17,03,28,11.10
2009,05,17,03,29,11.10
2009,05,17,03,30,11.10
2009,05,17,03,31,11.10
2009,05,17,03,32,11.10
2009,05,17,03,33,11.10
2009,05,17,03,34,11.10
2009,05,17,03,35,11.10
2009,05,17,03,36,11.10
2009,05,17,03,37,11.10
2009,05,17,03,38,11.10
2009,05,17,03,39,11.10
2009,05,17,03,40,11.00
2009,05,17,03,41,11.00
2009,05,17,03,42,11.00
2009,05,17,03,43,11.00
2009,05,17,03,44,10.90
2009,05,17,03,45,10.90
2009,05,17,03,46,10.90
2009,05,17,03,47,10.90
2009,05,17,03,48,10.90
2009,05,17,03,49,10.90
2009,05,17,03,50,10.90
2009,05,17,03,51,10.90
2009,05,17,03,52,10.90
2009,05,17,03,53,10.90
2009,05,17,03,54,10.80
2009,05,17,03,55,10.80
2009,05,17,03,56,10.80
2009,05,17,03,57,10.80
2009,05,17,03,58,10.80
2009,05,17,03,59,10.80
2009,05,17,04,00,10.80
2009,05,17,04,01,10.80
2009,05,17,04,02,10.80
2009,05,17,04,03,10.80
2009,05,17,04,04,10.80
2009,05,17,04,05,10.80
2009,05,17,04,06,10.80
2009,05,17,04,07,10.80
2009,05,17,04,08,10.80
2009,05,17,04,09,10.80
2009,05,17,04,10,10.80
2009,05,17,04,11,10.80
2009,05,17,04,12,10.80
2009,05,17,04,13,10.80
2009,05,17,04,14,10.80
2009,05,17,04,15,10.80
2009,05,17,04,16,10.80
2009,05,17,04,17,10.80
2009,05,17,04,18,10.80
2009,05,17,04,19,10.80
2009,05,17,04,20,10.80
2009,05,17,04,21,10.80
2009,05,17,04,22,10.80
2009,05,17,04,23,10.80
2009,05,17,04,24,10.80
2009,05,17,04,25,10.70
2009,05,17,04,26,10.70
2009,05,17,04,27,10.70
2009,05,17,04,28,10.70
2009,05,17,04,29,10.70
2009,05,17,04,30,10.70
2009,05,17,04,31,10.70
2009,05,17,04,32,10.70
2009,05,17,04,33,10.90
2009,05,17,04,34,11.10
2009,05,17,04,35,11.60
2009,05,17,04,36,12.00
2009,05,17,04,37,12.30
2009,05,17,04,38,12.50
2009,05,17,04,39,12.80
2009,05,17,04,40,13.00
2009,05,17,04,41,13.40
2009,05,17,04,42,13.60
2009,05,17,04,43,13.70
2009,05,17,04,44,13.80
2009,05,17,04,45,13.90
2009,05,17,04,46,13.90
2009,05,17,04,47,14.00
2009,05,17,04,48,14.10
2009,05,17,04,49,14.10
2009,05,17,04,50,14.10
2009,05,17,04,51,14.10
2009,05,17,04,52,14.10
2009,05,17,04,53,14.10
2009,05,17,04,54,14.10
2009,05,17,04,55,14.10
2009,05,17,04,56,14.10
2009,05,17,04,57,14.10
2009,05,17,04,58,14.10
2009,05,17,04,59,14.00
2009,05,17,05,00,14.00
2009,05,17,05,01,14.00
2009,05,17,05,02,14.00
2009,05,17,05,03,14.00
2009,05,17,05,04,14.10
2009,05,17,05,05,14.00
2009,05,17,05,06,14.00
2009,05,17,05,07,14.00
2009,05,17,05,08,14.00
2009,05,17,05,09,14.00
2009,05,17,05,10,14.10
2009,05,17,05,11,14.10
2009,05,17,05,12,14.00
2009,05,17,05,13,14.00
2009,05,17,05,14,14.00
2009,05,17,05,15,14.10
2009,05,17,05,16,14.00
2009,05,17,05,17,14.10
2009,05,17,05,18,14.00
2009,05,17,05,19,14.00
2009,05,17,05,20,13.90
2009,05,17,05,21,13.80
2009,05,17,05,22,13.70
2009,05,17,05,23,13.60
2009,05,17,05,24,13.50
2009,05,17,05,25,13.40
2009,05,17,05,26,13.30
2009,05,17,05,27,13.20
2009,05,17,05,28,13.10
2009,05,17,05,29,13.00
2009,05,17,05,30,13.00
2009,05,17,05,31,12.90
2009,05,17,05,32,12.80
2009,05,17,05,33,12.80
2009,05,17,05,34,12.70
2009,05,17,05,35,12.70
2009,05,17,05,36,12.70
2009,05,17,05,37,12.60
2009,05,17,05,38,12.60
2009,05,17,05,39,12.60
2009,05,17,05,40,12.60
2009,05,17,05,41,12.60
2009,05,17,05,42,12.60
2009,05,17,05,43,12.70
2009,05,17,05,44,12.70
2009,05,17,05,45,12.70
2009,05,17,05,46,12.80
2009,05,17,05,47,13.00
2009,05,17,05,48,13.10
2009,05,17,05,49,13.20
2009,05,17,05,50,13.30
2009,05,17,05,51,13.40
2009,05,17,05,52,13.40
2009,05,17,05,53,13.40
2009,05,17,05,54,13.40
2009,05,17,05,55,13.40
2009,05,17,05,56,13.40
2009,05,17,05,57,13.30
2009,05,17,05,58,13.30
2009,05,17,05,59,13.30
2009,05,17,06,00,13.20
2009,05,17,06,01,13.20
2009,05,17,06,02,13.10
2009,05,17,06,03,13.10
2009,05,17,06,04,13.10
2009,05,17,06,05,13.10
2009,05,17,06,06,13.10
2009,05,17,06,07,13.10
2009,05,17,06,08,13.00
2009,05,17,06,09,13.00
2009,05,17,06,10,12.90
2009,05,17,06,11,12.90
2009,05,17,06,12,12.90
2009,05,17,06,13,12.90
2009,05,17,06,14,12.80
2009,05,17,06,15,12.70
2009,05,17,06,16,12.60
2009,05,17,06,17,12.50
2009,05,17,06,18,12.40
2009,05,17,06,19,12.30
2009,05,17,06,20,12.40
2009,05,17,06,21,12.40
2009,05,17,06,22,12.40
2009,05,17,06,23,12.30
2009,05,17,06,24,12.30
2009,05,17,06,25,12.40
2009,05,17,06,26,12.60
2009,05,17,06,27,12.70
2009,05,17,06,28,12.80
2009,05,17,06,29,12.80
2009,05,17,06,30,12.80
2009,05,17,06,31,12.80
2009,05,17,06,32,12.70
2009,05,17,06,33,12.70
2009,05,17,06,34,12.80
2009,05,17,06,35,12.90
2009,05,17,06,36,13.00
2009,05,17,06,37,13.00
2009,05,17,06,38,13.10
2009,05,17,06,39,13.10
2009,05,17,06,40,13.20
2009,05,17,06,41,13.20
2009,05,17,06,42,13.30
2009,05,17,06,43,13.30
2009,05,17,06,44,13.30
2009,05,17,06,45,13.30
2009,05,17,06,46,13.30
2009,05,17,06,47,13.20
2009,05,17,06,48,13.20
2009,05,17,06,49,13.20
2009,05,17,06,50,13.10
2009,05,17,06,51,13.10
2009,05,17,06,52,13.00
2009,05,17,06,53,12.90
2009,05,17,06,54,12.80
2009,05,17,06,55,12.80
2009,05,17,06,56,12.70
2009,05,17,06,57,12.70
2009,05,17,06,58,12.60
2009,05,17,06,59,12.60
2009,05,17,07,00,12.60
2009,05,17,07,01,12.60
2009,05,17,07,02,12.50
2009,05,17,07,03,12.50
2009,05,17,07,04,12.50
2009,05,17,07,05,12.50
2009,05,17,07,06,12.50
2009,05,17,07,07,12.50
2009,05,17,07,08,12.50
2009,05,17,07,09,12.50
2009,05,17,07,10,12.50
2009,05,17,07,11,12.50
2009,05,17,07,12,12.60
2009,05,17,07,13,12.60
2009,05,17,07,14,12.70
2009,05,17,07,15,12.70
2009,05,17,07,16,12.80
2009,05,17,07,17,12.80
2009,05,17,07,18,12.80
2009,05,17,07,19,12.90
2009,05,17,07,20,12.90
2009,05,17,07,21,12.90
2009,05,17,07,22,12.90
2009,05,17,07,23,12.90
2009,05,17,07,24,12.90
2009,05,17,07,25,12.90
2009,05,17,07,26,12.90
2009,05,17,07,27,12.90
2009,05,17,07,28,12.80
2009,05,17,07,29,12.80
2009,05,17,07,30,12.80
2009,05,17,07,31,12.80
2009,05,17,07,32,12.90
2009,05,17,07,33,13.00
2009,05,17,07,34,13.10
2009,05,17,07,35,13.20
2009,05,17,07,36,13.40
2009,05,17,07,37,13.50
2009,05,17,07,38,13.70
2009,05,17,07,39,13.80
2009,05,17,07,40,13.90
2009,05,17,07,41,13.90
2009,05,17,07,42,14.00
2009,05,17,07,43,14.10
2009,05,17,07,44,14.10
2009,05,17,07,45,14.20
2009,05,17,07,46,14.30
2009,05,17,07,47,14.30
2009,05,17,07,48,14.40
2009,05,17,07,49,14.50
2009,05,17,07,50,14.50
2009,05,17,07,51,14.60
2009,05,17,07,52,14.70
2009,05,17,07,53,14.70
2009,05,17,07,54,14.80
2009,05,17,07,55,14.90
2009,05,17,07,56,15.00
2009,05,17,07,57,15.00
2009,05,17,07,58,15.00
2009,05,17,07,59,15.00
2009,05,17,08,00,15.00
2009,05,17,08,01,15.00
2009,05,17,08,02,15.00
2009,05,17,08,03,15.00
2009,05,17,08,04,15.00
2009,05,17,08,05,15.10
2009,05,17,08,06,15.10
2009,05,17,08,07,15.20
2009,05,17,08,08,15.20
2009,05,17,08,09,15.30
2009,05,17,08,10,15.30
2009,05,17,08,11,15.30
2009,05,17,08,12,15.30
2009,05,17,08,13,15.40
2009,05,17,08,14,15.40
2009,05,17,08,15,15.40
2009,05,17,08,16,15.50
2009,05,17,08,17,15.50
2009,05,17,08,18,15.60
2009,05,17,08,19,15.60
2009,05,17,08,20,15.60
2009,05,17,08,21,15.70
2009,05,17,08,22,15.70
2009,05,17,08,23,15.80
2009,05,17,08,24,15.80
2009,05,17,08,25,15.80
2009,05,17,08,26,15.90
2009,05,17,08,27,16.00
2009,05,17,08,28,16.00
2009,05,17,08,29,16.10
2009,05,17,08,30,16.20
2009,05,17,08,31,16.30
2009,05,17,08,32,16.40
2009,05,17,08,33,16.40
2009,05,17,08,34,16.50
2009,05,17,08,35,16.60
2009,05,17,08,36,16.60
2009,05,17,08,37,16.70
2009,05,17,08,38,16.80
2009,05,17,08,39,16.80
2009,05,17,08,40,17.00
2009,05,17,08,41,17.10
2009,05,17,08,42,17.30
2009,05,17,08,43,17.40
2009,05,17,08,44,17.50
2009,05,17,08,45,17.60
2009,05,17,08,46,17.70
2009,05,17,08,47,17.70
2009,05,17,08,48,17.70
2009,05,17,08,49,17.60
2009,05,17,08,50,17.60
2009,05,17,08,51,17.60
2009,05,17,08,52,17.70
2009,05,17,08,53,17.70
2009,05,17,08,54,17.80
2009,05,17,08,55,18.00
2009,05,17,08,56,18.10
2009,05,17,08,57,18.20
2009,05,17,08,58,18.40
2009,05,17,08,59,18.60
2009,05,17,09,00,18.70
2009,05,17,09,01,18.80
2009,05,17,09,02,18.80
2009,05,17,09,03,18.90
2009,05,17,09,04,18.90
2009,05,17,09,05,18.90
2009,05,17,09,06,19.00
2009,05,17,09,07,19.00
2009,05,17,09,08,19.10
2009,05,17,09,09,19.20
2009,05,17,09,10,19.20
2009,05,17,09,11,19.30
2009,05,17,09,12,19.40
2009,05,17,09,13,19.50
2009,05,17,09,14,19.50
2009,05,17,09,15,19.60
2009,05,17,09,16,19.60
2009,05,17,09,17,19.70
2009,05,17,09,18,19.70
2009,05,17,09,19,19.70
2009,05,17,09,20,19.70
2009,05,17,09,21,19.80
2009,05,17,09,22,19.90
2009,05,17,09,23,20.00
2009,05,17,09,24,20.00
2009,05,17,09,25,20.10
2009,05,17,09,26,20.10
2009,05,17,09,27,20.00
2009,05,17,09,28,19.90
2009,05,17,09,29,19.80
2009,05,17,09,30,19.80
2009,05,17,09,31,19.80
2009,05,17,09,32,19.80
2009,05,17,09,33,19.80
2009,05,17,09,34,19.90
2009,05,17,09,35,19.90
2009,05,17,09,36,19.90
2009,05,17,09,37,20.00
2009,05,17,09,38,20.00
2009,05,17,09,39,20.00
2009,05,17,09,40,20.10
2009,05,17,09,41,20.10
2009,05,17,09,42,20.10
2009,05,17,09,43,20.10
2009,05,17,09,44,20.20
2009,05,17,09,45,20.20
2009,05,17,09,46,20.20
2009,05,17,09,47,20.20
2009,05,17,09,48,20.10
2009,05,17,09,49,20.10
2009,05,17,09,50,20.00
2009,05,17,09,51,19.90
2009,05,17,09,52,19.90
2009,05,17,09,53,19.90
2009,05,17,09,54,20.00
2009,05,17,09,55,20.00
2009,05,17,09,56,20.10
2009,05,17,09,57,20.00
2009,05,17,09,58,20.00
2009,05,17,09,59,19.90
2009,05,17,10,00,19.90
2009,05,17,10,01,19.80
2009,05,17,10,02,19.70
2009,05,17,10,03,19.70
2009,05,17,10,04,19.80
2009,05,17,10,05,19.80
2009,05,17,10,06,19.90
2009,05,17,10,07,19.90
2009,05,17,10,08,19.90
2009,05,17,10,09,20.00
2009,05,17,10,10,20.10
2009,05,17,10,11,20.20
2009,05,17,10,12,20.30
2009,05,17,10,13,20.40
2009,05,17,10,14,20.50
2009,05,17,10,15,20.60
2009,05,17,10,16,20.70
2009,05,17,10,17,20.80
2009,05,17,10,18,20.80
2009,05,17,10,19,20.70
2009,05,17,10,20,20.70
2009,05,17,10,21,20.70
2009,05,17,10,22,20.70
2009,05,17,10,23,20.80
2009,05,17,10,24,20.80
2009,05,17,10,25,20.80
2009,05,17,10,26,20.80
2009,05,17,10,27,20.90
2009,05,17,10,28,20.90
2009,05,17,10,29,20.90
2009,05,17,10,30,20.90
2009,05,17,10,31,20.90
2009,05,17,10,32,20.90
2009,05,17,10,33,20.90
2009,05,17,10,34,20.90
2009,05,17,10,35,20.80
2009,05,17,10,36,20.70
2009,05,17,10,37,20.60
2009,05,17,10,38,20.50
2009,05,17,10,39,20.40
2009,05,17,10,40,20.30
2009,05,17,10,41,20.20
2009,05,17,10,42,20.20
2009,05,17,10,43,20.30
2009,05,17,10,44,20.30
2009,05,17,10,45,20.30
2009,05,17,10,46,20.30
2009,05,17,10,47,20.40
2009,05,17,10,48,20.40
2009,05,17,10,49,20.30
2009,05,17,10,50,20.30
2009,05,17,10,51,20.10
2009,05,17,10,52,20.00
2009,05,17,10,53,20.00
2009,05,17,10,54,19.90
2009,05,17,10,55,20.00
2009,05,17,10,56,20.00
2009,05,17,10,57,20.10
2009,05,17,10,58,20.20
2009,05,17,10,59,20.30
2009,05,17,11,00,20.40
2009,05,17,11,01,20.50
2009,05,17,11,02,20.50
2009,05,17,11,03,20.60
2009,05,17,11,04,20.70
2009,05,17,11,05,20.80
2009,05,17,11,06,20.90
2009,05,17,11,07,21.00
2009,05,17,11,08,21.20
2009,05,17,11,09,21.30
2009,05,17,11,10,21.30
2009,05,17,11,11,21.40
2009,05,17,11,12,21.40
2009,05,17,11,13,21.50
2009,05,17,11,14,21.40
2009,05,17,11,15,21.30
2009,05,17,11,16,21.30
2009,05,17,11,17,21.20
2009,05,17,11,18,21.10
2009,05,17,11,19,21.10
2009,05,17,11,20,21.10
2009,05,17,11,21,21.20
2009,05,17,11,22,21.20
2009,05,17,11,23,21.30
2009,05,17,11,24,21.20
2009,05,17,11,25,21.00
2009,05,17,11,26,20.80
2009,05,17,11,27,20.80
2009,05,17,11,28,20.70
2009,05,17,11,29,20.80
2009,05,17,11,30,20.80
2009,05,17,11,31,20.80
2009,05,17,11,32,20.80
2009,05,17,11,33,20.90
2009,05,17,11,34,21.00
2009,05,17,11,35,21.10
2009,05,17,11,36,21.20
2009,05,17,11,37,21.20
2009,05,17,11,38,21.20
2009,05,17,11,39,21.30
2009,05,17,11,40,21.30
2009,05,17,11,41,21.30
2009,05,17,11,42,21.40
2009,05,17,11,43,21.40
2009,05,17,11,44,21.30
2009,05,17,11,45,21.30
2009,05,17,11,46,21.20
2009,05,17,11,47,21.20
2009,05,17,11,48,21.20
2009,05,17,11,49,21.30
2009,05,17,11,50,21.30
2009,05,17,11,51,21.20
2009,05,17,11,52,21.20
2009,05,17,11,53,21.20
2009,05,17,11,54,21.30
2009,05,17,11,55,21.30
2009,05,17,11,56,21.20
2009,05,17,11,57,21.20
2009,05,17,11,58,21.20
2009,05,17,11,59,21.30
2009,05,17,12,00,21.30
2009,05,17,12,01,21.40
2009,05,17,12,02,21.60
2009,05,17,12,03,21.80
2009,05,17,12,04,21.80
2009,05,17,12,05,21.90
2009,05,17,12,06,21.90
2009,05,17,12,07,21.90
2009,05,17,12,08,21.80
2009,05,17,12,09,21.70
2009,05,17,12,10,21.60
2009,05,17,12,11,21.50
2009,05,17,12,12,21.40
2009,05,17,12,13,21.50
2009,05,17,12,14,21.60
2009,05,17,12,15,21.60
2009,05,17,12,16,21.60
2009,05,17,12,17,21.60
2009,05,17,12,18,21.60
2009,05,17,12,19,21.60
2009,05,17,12,20,21.70
2009,05,17,12,21,21.80
2009,05,17,12,22,21.80
2009,05,17,12,23,21.80
2009,05,17,12,24,21.80
2009,05,17,12,25,21.70
2009,05,17,12,26,21.70
2009,05,17,12,27,21.70
2009,05,17,12,28,21.80
2009,05,17,12,29,21.70
2009,05,17,12,30,21.70
2009,05,17,12,31,21.80
2009,05,17,12,32,22.00
2009,05,17,12,33,22.10
2009,05,17,12,34,22.10
2009,05,17,12,35,22.10
2009,05,17,12,36,22.10
2009,05,17,12,37,22.00
2009,05,17,12,38,21.90
2009,05,17,12,39,21.90
2009,05,17,12,40,21.80
2009,05,17,12,41,21.80
2009,05,17,12,42,21.80
2009,05,17,12,43,21.90
2009,05,17,12,44,22.00
2009,05,17,12,45,22.20
2009,05,17,12,46,22.20
2009,05,17,12,47,22.20
2009,05,17,12,48,22.30
2009,05,17,12,49,22.20
2009,05,17,12,50,22.20
2009,05,17,12,51,22.20
2009,05,17,12,52,22.00
2009,05,17,12,53,21.90
2009,05,17,12,54,21.80
2009,05,17,12,55,21.80
2009,05,17,12,56,21.80
2009,05,17,12,57,21.90
2009,05,17,12,58,21.90
2009,05,17,12,59,22.00
2009,05,17,13,00,22.00
2009,05,17,13,01,22.00
2009,05,17,13,02,22.00
2009,05,17,13,03,22.00
2009,05,17,13,04,22.20
2009,05,17,13,05,22.30
2009,05,17,13,06,22.20
2009,05,17,13,07,22.00
2009,05,17,13,08,21.90
2009,05,17,13,09,21.80
2009,05,17,13,10,22.00
2009,05,17,13,11,22.00
2009,05,17,13,12,21.90
2009,05,17,13,13,21.80
2009,05,17,13,14,21.90
2009,05,17,13,15,21.90
2009,05,17,13,16,21.90
2009,05,17,13,17,21.90
2009,05,17,13,18,22.00
2009,05,17,13,19,22.10
2009,05,17,13,20,22.10
2009,05,17,13,21,22.10
2009,05,17,13,22,22.10
2009,05,17,13,23,22.20
2009,05,17,13,24,22.10
2009,05,17,13,25,22.00
2009,05,17,13,26,22.00
2009,05,17,13,27,22.00
2009,05,17,13,28,21.90
2009,05,17,13,29,21.90
2009,05,17,13,30,21.90
2009,05,17,13,31,21.90
2009,05,17,13,32,21.90
2009,05,17,13,33,21.90
2009,05,17,13,34,22.00
2009,05,17,13,35,22.00
2009,05,17,13,36,22.00
2009,05,17,13,37,21.90
2009,05,17,13,38,22.00
2009,05,17,13,39,22.10
2009,05,17,13,40,22.10
2009,05,17,13,41,22.10
2009,05,17,13,42,22.00
2009,05,17,13,43,22.00
2009,05,17,13,44,22.00
2009,05,17,13,45,22.00
2009,05,17,13,46,22.10
2009,05,17,13,47,22.20
2009,05,17,13,48,22.20
2009,05,17,13,49,22.20
2009,05,17,13,50,22.30
2009,05,17,13,51,22.30
2009,05,17,13,52,22.20
2009,05,17,13,53,22.10
2009,05,17,13,54,22.20
2009,05,17,13,55,22.20
2009,05,17,13,56,22.20
2009,05,17,13,57,22.10
2009,05,17,13,58,22.00
2009,05,17,13,59,21.90
2009,05,17,14,00,21.80
2009,05,17,14,01,21.80
2009,05,17,14,02,21.80
2009,05,17,14,03,21.90
2009,05,17,14,04,21.90
2009,05,17,14,05,21.90
2009,05,17,14,06,21.80
2009,05,17,14,07,21.80
2009,05,17,14,08,21.80
2009,05,17,14,09,21.80
2009,05,17,14,10,21.80
2009,05,17,14,11,21.90
2009,05,17,14,12,21.90
2009,05,17,14,13,21.90
2009,05,17,14,14,21.90
2009,05,17,14,15,21.90
2009,05,17,14,16,22.00
2009,05,17,14,17,21.90
2009,05,17,14,18,21.90
2009,05,17,14,19,21.90
2009,05,17,14,20,21.90
2009,05,17,14,21,22.00
2009,05,17,14,22,22.00
2009,05,17,14,23,22.00
2009,05,17,14,24,21.90
2009,05,17,14,25,21.90
2009,05,17,14,26,21.90
2009,05,17,14,27,21.90
2009,05,17,14,28,21.90
2009,05,17,14,29,21.90
2009,05,17,14,30,21.90
2009,05,17,14,31,21.90
2009,05,17,14,32,21.90
2009,05,17,14,33,21.80
2009,05,17,14,34,21.70
2009,05,17,14,35,21.70
2009,05,17,14,36,21.70
2009,05,17,14,37,21.70
2009,05,17,14,38,21.70
2009,05,17,14,39,21.70
2009,05,17,14,40,21.70
2009,05,17,14,41,21.70
2009,05,17,14,42,21.70
2009,05,17,14,43,21.70
2009,05,17,14,44,21.70
2009,05,17,14,45,21.70
2009,05,17,14,46,21.80
2009,05,17,14,47,21.80
2009,05,17,14,48,21.90
2009,05,17,14,49,21.90
2009,05,17,14,50,21.80
2009,05,17,14,51,21.80
2009,05,17,14,52,21.80
2009,05,17,14,53,21.90
2009,05,17,14,54,21.90
2009,05,17,14,55,21.90
2009,05,17,14,56,21.80
2009,05,17,14,57,21.80
2009,05,17,14,58,21.80
2009,05,17,14,59,21.90
2009,05,17,15,00,21.80
2009,05,17,15,01,21.80
2009,05,17,15,02,21.80
2009,05,17,15,03,21.80
2009,05,17,15,04,21.80
2009,05,17,15,05,21.90
2009,05,17,15,06,22.00
2009,05,17,15,07,22.00
2009,05,17,15,08,21.80
2009,05,17,15,09,21.70
2009,05,17,15,10,21.50
2009,05,17,15,11,21.40
2009,05,17,15,12,21.30
2009,05,17,15,13,21.20
2009,05,17,15,14,21.20
2009,05,17,15,15,21.20
2009,05,17,15,16,21.10
2009,05,17,15,17,21.20
2009,05,17,15,18,21.30
2009,05,17,15,19,21.30
2009,05,17,15,20,21.20
2009,05,17,15,21,21.20
2009,05,17,15,22,21.30
2009,05,17,15,23,21.30
2009,05,17,15,24,21.30
2009,05,17,15,25,21.20
2009,05,17,15,26,21.30
2009,05,17,15,27,21.30
2009,05,17,15,28,21.20
2009,05,17,15,29,21.10
2009,05,17,15,30,21.10
2009,05,17,15,31,21.10
2009,05,17,15,32,21.20
2009,05,17,15,33,21.30
2009,05,17,15,34,21.30
2009,05,17,15,35,21.20
2009,05,17,15,36,21.20
2009,05,17,15,37,21.20
2009,05,17,15,38,21.20
2009,05,17,15,39,21.10
2009,05,17,15,40,21.00
2009,05,17,15,41,21.00
2009,05,17,15,42,20.90
2009,05,17,15,43,20.90
2009,05,17,15,44,21.00
2009,05,17,15,45,21.00
2009,05,17,15,46,21.10
2009,05,17,15,47,21.20
2009,05,17,15,48,21.20
2009,05,17,15,49,21.10
2009,05,17,15,50,21.10
2009,05,17,15,51,21.00
2009,05,17,15,52,20.80
2009,05,17,15,53,20.90
2009,05,17,15,54,20.90
2009,05,17,15,55,21.00
2009,05,17,15,56,21.00
2009,05,17,15,57,21.10
2009,05,17,15,58,21.20
2009,05,17,15,59,21.20
2009,05,17,16,00,21.00
2009,05,17,16,01,20.90
2009,05,17,16,02,20.90
2009,05,17,16,03,20.80
2009,05,17,16,04,20.80
2009,05,17,16,05,20.80
2009,05,17,16,06,20.70
2009,05,17,16,07,20.70
2009,05,17,16,08,20.70
2009,05,17,16,09,20.70
2009,05,17,16,10,20.70
2009,05,17,16,11,20.60
2009,05,17,16,12,20.70
2009,05,17,16,13,20.80
2009,05,17,16,14,20.80
2009,05,17,16,15,20.80
2009,05,17,16,16,20.80
2009,05,17,16,17,20.80
2009,05,17,16,18,20.80
2009,05,17,16,19,20.80
2009,05,17,16,20,20.90
2009,05,17,16,21,21.00
2009,05,17,16,22,20.90
2009,05,17,16,23,20.90
2009,05,17,16,24,20.90
2009,05,17,16,25,20.90
2009,05,17,16,26,20.90
2009,05,17,16,27,21.00
2009,05,17,16,28,21.00
2009,05,17,16,29,20.90
2009,05,17,16,30,20.70
2009,05,17,16,31,20.70
2009,05,17,16,32,20.80
2009,05,17,16,33,20.80
2009,05,17,16,34,20.90
2009,05,17,16,35,20.90
2009,05,17,16,36,21.00
2009,05,17,16,37,21.00
2009,05,17,16,38,21.00
2009,05,17,16,39,21.10
2009,05,17,16,40,21.10
2009,05,17,16,41,21.10
2009,05,17,16,42,21.00
2009,05,17,16,43,21.00
2009,05,17,16,44,20.90
2009,05,17,16,45,20.90
2009,05,17,16,46,20.80
2009,05,17,16,47,20.70
2009,05,17,16,48,20.70
2009,05,17,16,49,20.70
2009,05,17,16,50,20.80
2009,05,17,16,51,20.90
2009,05,17,16,52,20.90
2009,05,17,16,53,20.90
2009,05,17,16,54,20.90
2009,05,17,16,55,20.80
2009,05,17,16,56,20.80
2009,05,17,16,57,20.80
2009,05,17,16,58,20.80
2009,05,17,16,59,20.90
2009,05,17,17,00,21.10
2009,05,17,17,01,21.20
2009,05,17,17,02,21.30
2009,05,17,17,03,21.30
2009,05,17,17,04,21.40
2009,05,17,17,05,21.40
2009,05,17,17,06,21.40
2009,05,17,17,07,21.40
2009,05,17,17,08,21.40
2009,05,17,17,09,21.30
2009,05,17,17,10,21.30
2009,05,17,17,11,21.30
2009,05,17,17,12,21.30
2009,05,17,17,13,21.20
2009,05,17,17,14,21.20
2009,05,17,17,15,21.20
2009,05,17,17,16,21.20
2009,05,17,17,17,21.30
2009,05,17,17,18,21.40
2009,05,17,17,19,21.40
2009,05,17,17,20,21.30
2009,05,17,17,21,21.30
2009,05,17,17,22,21.30
2009,05,17,17,23,21.30
2009,05,17,17,24,21.20
2009,05,17,17,25,21.10
2009,05,17,17,26,21.00
2009,05,17,17,27,21.00